Wind_Speed
15 15 13 12 9 7 8 7 6 5 5 6 7 8 8 8 10 10 10 8 7 7 7 7 7 8 8 9 9 9 10 11 11 12 12 13 13 13 13 13 14 15 17
15 18 18 15 10 9 10 8 7 7 8 7 8 7 6 6 8 9 9 8 7 5 6 7 7 7 8 9 12 13 14 14 15 16 17 16 16 16 17 16 16 16 17
18 20 16 15 13 13 11 9 9 9 8 7 6 6 5 5 7 9 9 8 7 7 6 6 8 10 11 13 13 15 16 17 17 17 17 19 18 18 18 18 18 18 18
21 21 21 19 17 15 12 11 11 10 8 6 5 5 6 5 6 7 9 9 8 7 8 8 10 12 12 14 14 15 17 19 18 18 18 18 19 19 19 19 19 19 18
26 24 23 21 18 16 14 12 12 9 6 4 4 5 4 6 5 5 7 8 9 9 10 11 13 14 14 14 18 19 19 19 20 20 19 19 18 19 19 19 19 19 18
28 27 24 22 21 19 15 13 11 8 5 3 3 4 3 2 3 5 7 6 8 10 13 16 16 13 17 19 22 20 20 21 23 21 19 19 19 19 19 19 19 19 20
25 25 26 25 24 20 16 13 11 8 6 3 2 4 2 2 3 3 3 7 11 13 15 16 17 18 20 22 22 21 22 24 21 21 20 20 18 19 20 20 21 22 23
30 26 29 29 26 23 18 15 12 9 6 4 2 2 2 4 3 6 8 8 10 14 14 17 18 21 25 25 25 24 24 22 22 22 20 19 21 23 24 24 24 24 25
32 32 32 30 27 23 18 16 14 11 8 5 3 1 2 2 6 5 7 8 12 12 15 18 20 24 26 27 26 26 24 22 24 20 18 20 23 26 26 25 26 26 27
34 37 34 31 27 24 20 18 15 12 9 6 4 4 4 5 3 4 8 9 13 16 18 20 24 24 23 25 24 25 25 25 24 20 21 24 27 26 27 27 28 28 28
41 38 36 33 29 25 22 20 17 13 10 7 6 6 6 6 8 9 14 13 18 20 21 22 22 23 20 19 21 24 24 27 24 23 25 28 28 29 30 30 30 30 30
39 40 37 34 31 27 25 22 17 13 11 8 7 8 8 8 9 11 15 22 25 27 24 23 22 20 19 21 21 22 22 24 23 25 28 31 31 32 31 30 31 32 33
39 41 40 37 33 27 25 22 19 14 11 9 9 9 10 11 12 13 16 20 25 30 30 27 23 22 19 21 20 22 26 30 33 31 33 32 31 30 31 31 32 34 34
37 40 40 36 31 29 26 23 19 15 12 10 9 10 11 12 13 15 17 19 25 28 31 28 29 26 20 22 27 31 34 34 35 33 31 29 29 30 33 33 32 32 32
39 38 40 36 31 28 25 22 18 14 11 10 10 11 12 13 15 16 17 19 20 20 30 29 28 31 34 34 33 32 32 35 31 30 30 29 30 32 32 31 31 29 30
39 40 39 34 32 28 24 21 16 13 11 11 12 13 14 15 16 17 18 19 20 22 24 32 35 36 37 37 35 32 35 35 33 31 29 28 32 29 30 29 31 32 32
41 41 39 35 28 26 24 18 14 12 10 11 13 14 15 17 18 18 20 21 22 24 29 35 35 37 36 37 35 34 32 31 31 31 33 30 29 27 31 32 32 33 34
41 41 35 30 27 24 20 16 12 11 11 12 13 15 16 17 19 20 21 23 24 25 29 36 35 34 35 35 35 31 30 28 37 33 29 26 31 31 32 33 32 32 34
38 35 30 31 26 23 17 12 10 10 12 13 14 15 17 19 20 21 23 24 25 27 27 30 35 35 36 39 37 33 30 41 35 35 32 33 33 33 29 29 32 32 32
34 32 26 25 21 16 11 8 8 10 12 14 15 17 18 20 21 22 23 24 25 26 28 29 32 35 38 37 33 35 39 38 41 39 37 36 32 32 33 32 31 32 32
28 26 23 17 14 10 7 10 12 11 12 15 15 17 18 20 19 21 20 21 22 25 26 28 33 36 34 35 39 38 40 43 44 41 41 34 41 42 34 34 36 34 30
25 21 19 12 11 8 11 11 9 11 14 15 15 17 19 20 21 21 20 19 19 22 25 30 32 36 39 37 37 36 39 43 46 38 34 49 44 43 38 40 39 34 34
22 17 13 13 10 9 9 9 11 12 14 15 17 19 21 21 20 22 23 21 20 22 24 28 35 36 35 35 35 37 38 37 38 45 46 50 43 45 43 41 40 37 33
15 13 10 8 8 9 9 10 11 13 15 16 19 20 22 22 22 23 21 22 24 27 31 32 32 34 33 30 31 34 37 38 41 40 38 44 44 45 43 43 39 31 23
12 11 8 6 6 8 10 12 13 14 16 18 20 19 19 20 18 17 20 24 28 32 33 34 31 26 25 28 28 26 30 33 41 41 38 38 40 47 47 44 34 27 33
10 6 5 4 5 7 10 13 16 18 19 19 16 18 20 19 18 18 22 27 31 34 33 29 30 31 30 26 22 24 28 32 37 38 35 32 41 41 31 37 28 40 40
Wind_Direction
211 220 208 209 203 210 212 222 240 262 285 292 301 302 298 287 292 295 294 296 293 281 290 304 307 311 314 315 320 320 317 315 313 310 308 305 299 294 289 282 276 273 271
211 198 204 207 223 230 225 229 244 264 277 285 296 302 303 294 290 291 292 295 291 297 295 294 301 308 312 315 315 311 308 308 309 308 307 302 300 297 292 288 283 279 277
198 207 212 214 224 232 225 235 246 262 272 288 296 297 296 303 292 291 291 295 297 299 300 303 304 302 302 306 309 307 306 304 304 304 302 300 300 295 293 293 289 286 282
209 211 214 218 232 221 229 246 247 256 269 278 289 299 309 307 298 291 290 297 303 300 301 306 308 302 302 305 308 309 307 306 306 304 301 299 298 296 294 293 290 289 287
214 220 219 225 222 219 231 237 249 248 256 277 303 305 308 316 307 286 286 298 308 312 309 313 311 308 308 309 311 311 308 307 305 303 299 299 297 296 296 294 294 294 296
219 220 221 222 217 222 227 233 229 238 245 273 305 311 306 4 347 315 293 295 298 306 310 312 313 319 317 318 316 313 308 307 305 301 303 303 306 307 309 309 305 301 297
220 219 219 215 217 222 227 227 219 223 235 260 293 306 276 297 325 341 300 306 304 305 313 313 318 317 317 317 316 312 307 308 303 304 304 305 313 315 314 312 306 301 297
221 225 219 217 217 218 219 220 215 217 226 245 271 278 268 279 279 290 291 294 299 298 302 313 308 309 314 314 318 313 313 310 305 307 305 306 312 314 313 309 305 300 296
222 231 222 218 219 222 223 218 215 217 222 238 268 271 268 254 308 277 268 269 278 280 293 295 301 305 310 311 311 309 311 307 309 308 304 308 311 311 310 306 302 298 294
227 226 222 217 220 220 221 218 214 220 227 242 258 278 283 277 284 278 266 260 277 280 291 293 297 302 304 305 306 307 310 305 309 304 301 306 309 308 305 302 299 295 292
218 225 216 216 218 220 218 217 217 221 234 248 261 274 284 282 277 271 285 274 279 288 292 297 301 306 302 297 302 303 304 304 302 301 302 306 305 304 302 299 294 292 290
215 221 215 215 218 218 219 216 216 221 232 250 271 285 288 285 281 275 279 292 297 303 305 307 309 310 308 303 299 297 292 291 297 298 299 301 300 299 297 292 291 290 289
215 217 211 212 214 216 214 213 219 222 231 250 274 286 291 290 286 281 281 289 294 302 308 312 315 314 309 302 296 292 289 290 293 298 298 298 297 295 291 291 290 289 288
225 215 210 210 213 210 211 213 216 224 236 253 270 282 287 288 288 288 288 292 298 301 305 310 313 316 315 305 294 289 292 292 294 299 299 297 294 292 292 291 291 288 288
217 216 210 208 210 210 209 214 218 225 239 260 276 284 288 289 289 290 291 292 294 298 306 306 308 308 308 310 311 311 306 305 306 302 299 296 294 294 294 291 290 289 288
214 212 207 207 208 204 208 211 219 230 248 268 281 290 294 294 292 291 292 291 291 292 288 295 302 306 309 310 312 309 304 306 307 305 301 297 297 296 294 291 291 290 288
213 208 206 204 203 208 206 211 222 238 256 276 288 293 295 293 293 294 294 295 294 294 292 297 302 305 308 311 312 312 311 309 307 307 304 299 300 296 294 291 291 290 289
208 205 204 200 197 201 204 213 227 249 266 281 288 291 292 293 295 297 297 296 298 301 300 301 306 310 313 316 316 316 313 313 315 312 307 301 296 297 293 293 294 290 291
204 201 198 199 199 195 202 212 235 263 282 288 290 293 295 295 298 299 300 302 304 305 303 306 311 315 315 316 322 321 318 317 313 314 308 307 306 302 299 297 292 291 288
192 192 194 188 191 190 201 228 252 265 283 291 295 296 296 296 299 301 303 306 307 305 307 307 308 310 312 316 317 313 315 315 315 316 314 310 310 311 307 303 304 304 297
185 177 180 177 190 197 208 252 270 298 291 287 294 296 296 296 297 297 298 298 296 298 301 303 306 309 311 311 314 315 312 313 314 314 315 315 314 312 310 307 310 309 303
171 165 165 183 205 223 253 284 287 279 286 294 301 301 299 298 300 302 302 297 294 299 300 300 303 305 306 308 310 311 308 310 310 316 309 307 310 309 309 310 313 308 299
168 171 170 197 233 265 261 264 278 283 297 304 307 306 303 302 301 301 304 305 298 292 293 297 299 303 305 307 305 305 308 308 302 300 305 304 310 308 312 313 311 310 306
158 179 193 198 221 243 270 282 296 300 306 311 311 307 303 300 298 300 307 303 296 298 298 303 305 304 303 306 303 301 299 296 295 301 307 300 311 308 313 310 312 313 308
160 163 193 212 255 272 289 299 302 307 312 313 311 307 306 307 308 313 303 298 300 302 306 307 305 299 299 300 301 300 300 306 306 309 311 307 313 313 310 310 316 319 316
169 185 211 242 266 287 304 311 317 318 316 318 317 316 317 317 314 312 307 305 304 303 312 313 308 307 308 308 310 311 312 308 309 306 312 305 310 315 311 308 307 312 312
Height
1528 1530 1532 1533 1535 1536 1537 1537 1537 1537 1537 1536 1536 1535 1535 1533 1534 1532 1532 1531 1532 1530 1531 1531 1531 1531 1530 1530 1529 1528 1527 1527 1526 1525 1524 1523 1522 1522 1521 1521 1521 1521 1521
1527 1527 1529 1530 1532 1534 1534 1535 1536 1536 1535 1534 1533 1532 1533 1532 1531 1530 1530 1529 1530 1528 1528 1529 1529 1529 1528 1528 1527 1526 1525 1524 1523 1522 1521 1520 1519 1518 1517 1517 1516 1516 1516
1523 1524 1526 1529 1532 1533 1533 1533 1533 1534 1533 1532 1531 1531 1531 1530 1529 1528 1528 1528 1528 1527 1526 1527 1527 1527 1526 1525 1524 1523 1522 1521 1520 1519 1517 1516 1515 1514 1513 1512 1511 1511 1511
1519 1522 1524 1527 1529 1530 1531 1531 1532 1531 1531 1530 1530 1528 1527 1528 1527 1526 1526 1526 1526 1525 1525 1525 1525 1524 1524 1523 1521 1520 1518 1516 1516 1515 1514 1512 1511 1510 1508 1507 1506 1506 1506
1517 1520 1523 1524 1525 1526 1527 1529 1529 1529 1529 1528 1528 1527 1526 1525 1524 1524 1525 1525 1523 1523 1523 1523 1522 1521 1521 1520 1519 1517 1515 1513 1511 1510 1508 1507 1506 1504 1503 1502 1502 1501 1501
1514 1517 1519 1520 1521 1522 1524 1525 1526 1527 1527 1527 1526 1525 1524 1523 1523 1523 1522 1522 1522 1522 1521 1520 1520 1519 1517 1516 1515 1513 1511 1509 1507 1505 1503 1502 1500 1499 1498 1497 1497 1496 1496
1509 1512 1514 1516 1517 1519 1521 1522 1523 1524 1525 1525 1525 1524 1522 1521 1521 1520 1520 1520 1520 1519 1518 1517 1517 1515 1514 1512 1511 1508 1506 1505 1502 1500 1499 1497 1496 1495 1493 1492 1492 1491 1490
1504 1507 1509 1511 1513 1515 1516 1518 1519 1521 1522 1522 1523 1522 1520 1521 1519 1518 1518 1517 1517 1516 1516 1515 1513 1512 1510 1508 1506 1503 1501 1500 1498 1496 1494 1493 1491 1489 1488 1487 1486 1485 1484
1499 1503 1505 1507 1510 1512 1513 1515 1516 1517 1518 1520 1519 1519 1518 1517 1516 1515 1514 1514 1514 1514 1513 1511 1510 1508 1505 1503 1501 1498 1497 1495 1493 1491 1490 1489 1487 1484 1483 1481 1480 1479 1478
1494 1498 1501 1504 1507 1508 1510 1512 1512 1514 1515 1516 1516 1515 1515 1515 1514 1513 1512 1511 1511 1510 1509 1508 1506 1504 1501 1498 1496 1494 1492 1490 1488 1487 1485 1483 1481 1479 1477 1475 1473 1471 1468
1487 1492 1496 1499 1502 1505 1506 1508 1509 1509 1511 1512 1512 1511 1511 1510 1510 1509 1507 1507 1507 1506 1505 1503 1500 1498 1495 1493 1490 1488 1486 1484 1483 1481 1479 1476 1474 1471 1469 1468 1465 1463 1460
1480 1485 1489 1495 1497 1500 1502 1504 1506 1506 1507 1507 1507 1507 1507 1506 1505 1504 1502 1500 1498 1497 1496 1496 1494 1492 1489 1487 1484 1482 1480 1477 1476 1474 1472 1469 1466 1464 1462 1459 1456 1454 1451
1472 1477 1482 1488 1492 1496 1498 1500 1501 1502 1504 1504 1504 1504 1503 1502 1501 1500 1498 1496 1493 1489 1488 1487 1487 1485 1483 1481 1478 1476 1473 1471 1468 1465 1463 1460 1458 1455 1452 1450 1447 1445 1442
1466 1472 1477 1483 1488 1491 1493 1496 1497 1498 1500 1500 1500 1500 1499 1498 1498 1496 1494 1492 1487 1484 1481 1480 1479 1478 1476 1475 1472 1470 1466 1462 1459 1455 1453 1451 1448 1445 1443 1440 1438 1435 1432
1464 1468 1473 1478 1483 1486 1489 1492 1494 1495 1496 1496 1496 1495 1495 1495 1494 1492 1490 1488 1485 1479 1474 1472 1471 1470 1468 1465 1463 1459 1456 1453 1449 1446 1443 1441 1439 1436 1433 1431 1428 1425 1422
1461 1464 1469 1474 1478 1482 1485 1488 1490 1492 1492 1492 1491 1491 1490 1489 1489 1487 1485 1483 1480 1477 1471 1468 1465 1462 1460 1457 1454 1451 1448 1444 1440 1436 1434 1432 1429 1426 1424 1421 1418 1415 1412
1456 1460 1463 1469 1473 1479 1482 1484 1487 1488 1488 1488 1487 1487 1486 1484 1484 1481 1479 1477 1475 1472 1465 1460 1459 1457 1452 1449 1446 1442 1439 1435 1431 1428 1425 1422 1420 1418 1415 1411 1408 1405 1402
1452 1456 1461 1465 1473 1474 1478 1481 1483 1485 1484 1483 1483 1482 1481 1479 1478 1476 1473 1471 1468 1465 1461 1454 1452 1449 1446 1442 1438 1434 1430 1427 1423 1419 1416 1415 1411 1407 1404 1400 1398 1395 1391
1450 1454 1460 1464 1467 1471 1475 1477 1479 1481 1482 1479 1478 1477 1476 1474 1473 1470 1467 1465 1462 1458 1456 1450 1444 1443 1438 1435 1429 1425 1421 1417 1414 1411 1408 1403 1400 1396 1393 1391 1388 1384 1381
1449 1454 1459 1464 1470 1470 1473 1476 1476 1476 1475 1477 1474 1472 1471 1469 1467 1464 1461 1459 1455 1452 1450 1445 1440 1436 1433 1428 1424 1418 1412 1410 1404 1401 1398 1394 1390 1386 1383 1380 1377 1373 1368
1449 1453 1461 1466 1471 1470 1470 1471 1472 1471 1472 1472 1470 1467 1466 1463 1462 1459 1457 1453 1451 1448 1444 1440 1435 1431 1426 1421 1417 1412 1406 1401 1396 1393 1386 1382 1379 1376 1372 1369 1365 1361 1357
1451 1456 1459 1465 1467 1471 1470 1467 1467 1468 1469 1466 1464 1462 1460 1458 1456 1453 1451 1448 1447 1443 1439 1435 1430 1425 1420 1416 1411 1407 1402 1395 1384 1385 1380 1374 1372 1365 1362 1358 1354 1350 1347
1451 1454 1456 1462 1465 1466 1467 1465 1465 1465 1463 1460 1457 1455 1454 1452 1449 1446 1444 1442 1440 1437 1435 1431 1424 1419 1413 1410 1406 1400 1395 1390 1385 1379 1374 1363 1362 1354 1352 1347 1344 1340 1335
1450 1454 1458 1461 1463 1466 1464 1462 1462 1460 1457 1455 1452 1450 1447 1445 1443 1440 1438 1436 1433 1431 1428 1423 1417 1411 1408 1404 1401 1396 1389 1383 1377 1372 1369 1356 1352 1345 1341 1337 1333 1329 1325
1452 1456 1458 1458 1460 1462 1461 1459 1457 1455 1452 1449 1447 1445 1442 1439 1437 1435 1433 1429 1426 1421 1418 1414 1409 1405 1403 1399 1394 1388 1382 1376 1366 1362 1359 1352 1343 1335 1330 1323 1321 1318 1315
1454 1457 1459 1458 1459 1459 1456 1454 1451 1449 1447 1445 1443 1440 1437 1434 1432 1431 1428 1423 1417 1413 1409 1404 1400 1397 1394 1390 1386 1383 1377 1370 1362 1353 1351 1347 1338 1334 1317 1313 1311 1308 1305